Location: Newark
(33.9035°S, 18.4112°E)
Time: 10:13:44
(UTC+00:00)

STARLINK-1099 - Pass Details

Date: 22 January 2020
Orbit: 530 x 532 km, 53.0° (Epoch: 18 February)

Event Time Altitude Azimuth Distance (km) Brightness Sun altitude
Exits shadow 02:07:02 54° 276° (W) 650 3.6 -19.9°
Maximum altitude 02:07:44 66° 224° (SW) 582 3.6 -19.8°
Drops below altitude 10° 02:11:46 10° 141° (SE) 1,787 7.4 -19.1°
Sets 02:14:01 0° 137° (SE) 2,684 8.8 -18.8°
